Terug naar catalogus

STARLINK-5148

ActiefCommunicatieVLEO
NORAD 53978·PAYLOAD·🇺🇸 United States

Gelanceerd Oct 5, 2022 vanaf Vandenberg Space Force Base

Loading…

Volgende Passages (komende 24 uur)

TLE

VersSource: CelesTrak SupGP

Epoch: Sep 15, 2026, 01:42 UTC

1 53978C 22125Q   26258.07131944  .00074722  00000+0  28138-2 0  2589
2 53978  53.1606  86.9013 0001144  95.4577 238.0953 15.26531053    11

Volg STARLINK-5148 in realtime met AllMySat

Download on the App Store